Время (UTC), дата Ветер
(°,м/с) 
Видим.   Явления Облачность Т
(°С)
Тd
(°С)
f(%) Тe
(°С)
Pmin
(гПа)
dP
(гПа)
Po
(мм)
O2
(г/м3)
Тmin Tmax R s Состояние
почвы
00 01.08.13 260 (З) 7-10{12}  20000 м    3/3 600 м 
[Sc]
+17.4 +13.3 77 +24  1008.1  0.4  717  269           
03 01.08.13 250 (З) 20000 м    4/3 600 м верхняя 
[Sc diur, vesp|Ci fib]
+17.4 +13.5 78 +24  1008.8  0.7  718  269  +16.8        сухая 
06 01.08.13 250 (З) 8-10{12}  20000 м    4/3 600 м средняя 
[Cu med, cong|Ac trans]
+22.1 +14.4 62 +31  1008.4  0.4  718  265           
09 01.08.13 250 (З) 6{11}  20000 м    6/3 600 м кучево-дожд., средняя 
[Cb calv|Ac trans]
+24.6 +14.1 52 +33  1008  718  263           
12 01.08.13 320 (СЗ) 4{11}  20000 м    8/3 600 м кучево-дожд., средняя 
[Cb calv|Ac As]
+24.7 +14.2 52 +33  1007.3  -0.6  718  262           
15 01.08.13 260 (З) 7-10  20000 м    10/5 600 м кучево-дожд., средняя 
[Cb calv|Ac und]
+21.2 +13.7 62 +29  1008.4  0.4  718  266    +27       
18 01.08.13 270 (З) 6{10}  20000 м    4/1 1000 м средняя 
[Sc diur, vesp|Ac trans]
+19.4 +13.6 69 +27  1010.1  1.3  719  268           
21 01.08.13 260 (З) 5{10}  20000 м    1/0 средняя 
[Ac trans]
+18.2 +15 82 +28  1010.8  0.5  719  269           
00 02.08.13 260 (З) 6{10}  20000 м    ясно 
+17.6 +14.7 83 +26  1011.2  0.3  720  269           
03 02.08.13 240 (ЮЗ) 20000 м    1/0 средняя 
[Ac trans]
+18 +15.9 88 +29  1011.3  0.2  720  269  +16.7        сухая 
06 02.08.13 240 (ЮЗ) 20000 м    ясно 
+23.7 +14.2 55 +32  1010.7  0.3  720  264           
09 02.08.13 250 (З) 5{11}  20000 м    1/1 600 м 
[Cu hum]
+26.9 +12.4 41 +32  1010.1  720  262           
12 02.08.13 270 (З) 5{10}  20000 м    4/3 600 м верхняя 
[Cu hum|Ci fib]
+28.3 +11.6 35 +33  1009.1  -0.8  719  260           
15 02.08.13 280 (З) 6{11}  20000 м    9/3 600 м верхняя 
[Cu hum|Ci fib]
+24.1 +12.5 48 +30  1010  0.2  720  264    +28.9       
18 02.08.13 270 (З) 20000 м    4/0 средняя 
[Ac trans]
+20.3 +13.2 64 +27  1011.7  720  267           
21 02.08.13 250 (З) 20000 м    9/0 средняя 
[Ac trans]
+20.5 +12.5 60 +26  1011.4  -0.3  720  267           
00 03.08.13 240 (ЮЗ) 20000 м    9/0 средняя 
[Ac trans]
+19.4 +15.5 78 +31  1011.1  -0.4  720  267           
03 03.08.13 250 (З) 20000 м    6/0 средняя, верхняя 
[Ac trans|Ci fib]
+18.9 +15.5 81 +30  1010.8  -0.4  719  268  +17        сухая 
06 03.08.13 260 (З) 4{10}  20000 м    8/3 600 м средняя 
[Cu hum|Ac trans]
+22.9 +15.1 61 +33  1009.4  -0.6  719  264           
09 03.08.13 230 (ЮЗ) 7-10{10}  20000 м    8/3 600 м кучево-дожд., средняя 
[Cb calv|Ac trans]
+25.8 +12.5 44 +31  1008  -0.9  718  262           
12 03.08.13 290 (З) 10-14{14}  20000 м    8/3 1000 м кучево-дожд., средняя 
[Cb calv|Ac trans]
+26.6 +11.9 40 +31  1007.6  -0.2  718  261           
15 03.08.13 250 (З) 4{16}  20000 м    6/3 1000 м кучево-дожд., средняя 
[Cb calv|Ac trans]
+20.9 +13.7 63 +28  1008.3  -0.3  718  266    +27.5       
18 03.08.13 250 (З) 6-12{12}  20000 м    6/0 средняя 
[Ac trans]
+19.3 +14.1 72 +27  1010.1  1.5  719  268           
21 03.08.13 260 (З) 4{12}  20000 м    3/0 средняя 
[Ac trans]
+17.3 +12.4 73 +23  1010.6  0.1  719  270           
00 04.08.13 220 (ЮЗ) 20000 м  в посл. час ливневой дождь  8/4 600 м кучево-дожд., средняя 
[Cb calv|Ac trans]
+15.3 +12.7 84 +21  1010.4  -0.5  719  272           
03 04.08.13 200 (Ю) 20000 м  в посл. час ливневой дождь  9/5 1000 м кучево-дожд., средняя 
[Cb calv|Ac trans]
+15.4 +13.6 89 +22  1010  -0.4  718  271  +15    0.3     
06 04.08.13 250 (З) 20000 м  {ливн. осадки}  8/3 600 м средняя 
[Sc|Ac trans]
+18.5 +12 66 +24  1009.3  -0.2  718  268           
09 04.08.13 250 (З) 7-10{12}  20000 м    5/4 600 м кучево-дожд., средняя 
[Cb calv|Ac trans]
+23.5 +10.1 43 +26  1007.1  -1.2  717  264           
12 04.08.13 250 (З) 6{14}  20000 м  в посл. час гроза{ливн. осадки}  10/3 600 м кучево-дожд., средняя 
[Cb cap|Ac und]
+18.3 +13.1 72 +25  1008.4  0.4  718  268           
15 04.08.13 250 (З) 20000 м  гроза, ливневой дождь  10/4 600 м кучево-дожд., средняя 
[Cb cap|Ac und]
+16.6 +13.8 84 +24  1009.1  0.4  718  270    +23.6     
18 04.08.13 260 (З) 6{15}  20000 м  {гроза, ливн. осадки}  10/8 600 м кучево-дожд., средняя 
[Cb calv|Ac und]
+14.5 +13.1 91 +21  1011  1.5  719  272           
21 04.08.13 280 (З) 7-10{11}  20000 м    8/6 270 м средняя 
[St|Ac trans]
+14.5 +12.8 90 +20  1011  719  273           
00 05.08.13 270 (З) 5{11}  20000 м    3/3 300 м 
[St]
+14.2 +13 92 +20  1011  719  273           
03 05.08.13 260 (З) 10 км    4/4 200 м 
[St]
+14.9 +13.5 91 +21  1010.7  -0.2  719  272  +14      влажная 
06 05.08.13 260 (З) 8-12{13}  20000 м    8/5 300 м кучево-дожд., средняя 
[Cb calv|Ac As]
+18.5 +14.3 77 +27  1010.4  0.4  719  268           
09 05.08.13 270 (З) 6-11{14}  10 км  слаб. ливневой дождь  10/8 300 м кучево-дожд., средняя 
[Cb calv|Ac und]
+18 +15.9 88 +29  1010  -0.4  719  268           
12 05.08.13 280 (З) 6{13}  10 км  {ливн. осадки}  10/8 630 м кучево-дожд., средняя 
[Cb calv|Ac und]
+19.3 +15.6 79 +30  1009.1  -0.7  718  267           
15 05.08.13 280 (З) 20000 м  в посл. час ливневой дождь  9/6 300 м кучево-дожд., средняя 
[Cb calv|Ac As]
+20.1 +15.1 73 +30  1009.4  -0.7  719  266    +21.5     
18 05.08.13 280 (З) 5{14}  20000 м  гроза, ливневой дождь  10/8 630 м кучево-дожд., средняя 
[Cb calv|Ac As]
+16.3 +14 86 +24  1011.7  1.5  720  271           
21 05.08.13 260 (З) 20000 м  в посл. час гроза{ливн. осадки}  8/3 600 м кучево-дожд., средняя 
[Cb calv|Ac trans]
+16.4 +14 86 +24  1012.1  0.4  720  271           
00 06.08.13 270 (З) 8-11{12}  20000 м  {гроза, ливн. осадки}  3/0 средняя 
[Ac trans]
+16.8 +14.6 87 +25  1011.8  -0.2  720  270           
03 06.08.13 280 (З) 10 км    9/9 200 м 
[St]
+16.8 +15.1 90 +27  1012.5  0.7  720  270  +15.8      влажная 
06 06.08.13 270 (З) 7{10}  20000 м    1/1 600 м 
[Cu hum]
+20.4 +14.6 69 +29  1012  0.1  721  267           
09 06.08.13 270 (З) 6{10}  20000 м    5/5 600 м 
[Cu hum]
+23.3 +14.5 58 +32  1011.9  0.4  721  265           
12 06.08.13 280 (З) 6{10}  20000 м    4/4 1000 м 
[Cu hum]
+24.2 +13.9 53 +32  1011.4  -0.3  721  264           
15 06.08.13 300 (СЗ) 20000 м    1/1 1000 м 
[Cu hum]
+23.4 +13.3 53 +30  1011.3  -0.3  720  265    +24.6       
18 06.08.13 290 (З) 20000 м    ясно 
+19.6 +14.3 71 +30  1012.8  0.8  721  268           
21 06.08.13 280 (З) 20000 м    ясно 
+18.8 +14.2 75 +27  1012.2  -0.7  720  269           
00 07.08.13 270 (З) 20000 м    ясно 
+17 +13.9 82 +25  1011.9  -0.6  720  270           
03 07.08.13 280 (З) 20000 м    1/0 средняя 
[Ac trans]
+19.2 +14.7 75 +29  1011.6  -0.6  720  268  +16.6        сухая 
06 07.08.13 270 (З) 20000 м    1/1 600 м 
[Cu hum]
+23.3 +14.8 59 +33  1011.5  0.5  721  264           
09 07.08.13 330 (СЗ) 20000 м    6/6 800 м 
[Cu hum]
+25.2 +12.6 45 +31  1010.8  -0.3  720  263           
12 07.08.13 280 (З) 20000 м    6/6 1000 м 
[Cu hum]
+27 +12.3 40 +32  1009.6  -0.9  720  262           
15 07.08.13 330 (СЗ) 20000 м    6/3 1000 м средняя 
[Cu hum|Ac trans]
+25.2 +13 47 +32  1010.7  0.9  720  263    +27.2       
18 07.08.13 230 (ЮЗ) 3{12}  20000 м    6/3 1000 м кучево-дожд., средняя 
[Cb calv|Ac trans]
+17.3 +14.8 85 +27  1012.3  0.1  720  270           
21 07.08.13 240 (ЮЗ) 20000 м    8/3 1000 м кучево-дожд., средняя 
[Cb calv|Ac trans]
+19.1 +14.6 75 +29  1012.6  0.6  721  268           
00 08.08.13 280 (З) 20000 м    6/3 1000 м кучево-дожд., средняя 
[Cb calv|Ac trans]
+18.2 +14.7 80 +28  1013  0.3  721  269           
03 08.08.13 280 (З) 20000 м    5/0 средняя 
[Ac trans]
+18 +15.1 83 +29  1013.5  0.5  721  269  +17.3        сухая 
06 08.08.13 310 (СЗ) 20000 м    4/0 верхняя 
[Ci fib]
+13.4 +15.1 100 +23  1013.2  0.6  722  274           
09 08.08.13 330 (СЗ) 20000 м    3/3 600 м 
[Cu hum]
+25.9 +13.7 47 +33  1012.4  -0.4  722  263           
12 08.08.13 340 (С) 6-10{10}  20000 м    3/3 1000 м 
[Cu med, cong]
+26.7 +11.9 40 +31  1011.9  -0.4  721  262           
15 08.08.13 360 (С) 5{10}  20000 м    1/1 1000 м 
[Cu hum]
+25.2 +6.9 31 +25  1012.9  0.7  722  265    +27.1       
18 08.08.13 360 (С) 20000 м    1/0 средняя 
[Ac lent]
+20.2 +7.3 43 +20  1015.4  1.5  723  270           
21 08.08.13 080 (В) 20000 м    ясно 
+17.9 +6.4 47 +19  1015.4  -0.4  723  272           
00 09.08.13 230 (ЮЗ) 20000 м    8/0 средняя 
[Ac trans]
+16.7 +8.9 60 +18  1015.1  -0.4  722  273           
03 09.08.13 280 (З) 20000 м    6/0 средняя 
[Ac As]
+17.7 +8.4 54 +19  1014.8    722  272  +13.8        сухая 
06 09.08.13 360 (С) 20000 м    5/0 средняя 
[Ac trans]
+23.5 +7.7 36 +24  1013.8  722  267           
09 09.08.13 330 (СЗ) 20000 м    6/4 600 м средняя 
[Cu med, cong|Ac trans]
+25 +7.6 33 +25  1013  -0.5  722  265           
12 09.08.13 290 (З) 20000 м    4/3 600 м средняя 
[Cu med, cong|Ac trans]
+27.2 +8.4 31 +27  1011.8  -0.7  721  263           
15 09.08.13 320 (СЗ) 20000 м    3/3 600 м средняя 
[Cu med, cong|Ac trans]
+25.7 +7.8 32 +26  1011.6  -0.5  721  264    +27.4       
18 09.08.13 010 (С) 20000 м    3/0 средняя 
[Ac trans]
+20.9 +7.6 42 +21  1013.4  0.9  722  269           
21 09.08.13 тихо ()   20000 м    ясно 
+18.2 +4.6 41 +18  1013.7  -0.2  721  272           
00 10.08.13 тихо ()   20000 м    ясно 
+17.7 +5.5 45 +18  1012.9  -0.8  721  272           
03 10.08.13 340 (С) 20000 м    1/0 средняя 
[Ac trans]
+17.9 +5.3 43 +19  1012.7  -0.2  721  272  +15.6        сухая 
06 10.08.13 040 (СВ) 20000 м    6/0 средняя 
[Ac trans]
+24.9 +5.9 29 +25  1011.7  0.2  721  265           
09 10.08.13 080 (В) 20000 м    5/5 600 м 
[Cu hum]
+26.9 +7.6 29 +27  1010.6  -0.7  720  263           
12 10.08.13 020 (С) 20000 м    6/6 900 м 
[Cu hum]
+27.5 +6.3 26 +28  1010  -0.5  720  262           
15 10.08.13 010 (С) 3{11}  20000 м    3/1 1000 м средняя 
[Cu hum|Ac trans]
+26.5 +7.1 29 +27  1009.9  -0.2  720  263    +28.5       
18 10.08.13 030 (СВ) 20000 м    ясно 
+21.7 +7.8 41 +22  1011.4  0.7  720  267           
21 10.08.13 080 (В) 20000 м    ясно 
+20 +7.1 43 +20  1011.4  -0.3  720  269           
00 11.08.13 140 (ЮВ) 20000 м    ясно 
+17.6 +7.9 53 +18  1011.3  -0.5  720  271           
03 11.08.13 070 (В) 20000 м    ясно 
+18.1 +8.4 53 +19  1011.5  0.3  720  271  +16.4        сухая 
06 11.08.13 090 (В) 20000 м    ясно 
+24.7 +10.4 41 +27  1010.9  0.3  720  264           
09 11.08.13 080 (В) 7-13{13}  20000 м    3/3 600 м 
[Cu hum]
+27.9 +6.7 26 +28  1010.1  -0.3  720  262           
12 11.08.13 080 (В) 6-10{13}  20000 м    ясно 
+29.2 +5.3 22 +29  1008.9  -1  719  261           
15 11.08.13 100 (В) 6{12}  20000 м    ясно 
+27.4 +6.1 26 +27  1008.9  -0.3  719  262    +29.4       
18 11.08.13 090 (В) 20000 м    ясно 
+19.8 +7 43 +20  1011.5  1.2  720  269           
21 11.08.13 090 (В) 20000 м    ясно 
+17.3 +7.1 51 +18  1011.8  0.1  720  272           
00 12.08.13 080 (В) 20000 м    ясно 
+15.2 +6.1 55 +15  1012.2  720  274           
03 12.08.13 060 (СВ) 20000 м    ясно 
+16.1 +8 59 +16  1012.7  0.6  720  273  +14.8        сухая 
06 12.08.13 110 (В) 8-11{11}  10 км    ясно 
+24.8 +9.7 38 +26  1011.9  0.7  721  265           
09 12.08.13 100 (В) 10-14{15}  10 км    ясно 
+28.2 +6.4 25 +28  1010.9  -0.5  721  262           
12 12.08.13 100 (В) 8-11{16}  10 км    ясно 
+29.7 +7.3 25 +30  1009.8  -0.8  720  260           
15 12.08.13 120 (ЮВ) 6-10  10 км    8/0 верхняя 
[Ci fib]
+27.8 +7.8 28 +28  1010.2  -0.1  720  262    +29.7       
18 12.08.13 080 (В) 6{10}  20000 м    8/0 верхняя 
[Ci fib]
+22.9 +9.5 43 +24  1011.1  0.1  720  266           
21 12.08.13 100 (В) 20000 м    5/0 средняя 
[Ac trans]
+19.9 +11.6 59 +25  1012.3  0.7  721  268           
00 13.08.13 080 (В) 20000 м    6/0 средняя 
[Ac trans]
+17.9 +13.4 75 +25  1012.6  0.7  721  270           
03 13.08.13 100 (В) 20000 м    9/9 300 м средняя 
[Ac trans]
+17.7 +13.9 78 +26  1012.8  0.2  721  270  +17.1        сухая 
06 13.08.13 120 (ЮВ) 20000 м    10/0 верхняя 
[Cs]
+21.3 +15.4 69 +32  1012.5  0.3  721  266           
12 13.08.13 тихо ()   20000 м  {ливн. осадки}  10/0 средняя, верхняя 
[As op|Cs]
+24.9 +15 54 +35  1011.7  -0.4  721  263           
15 13.08.13 280 (З) 20000 м    8/0 средняя, верхняя 
[Ac trans|Ci fib]
+24.6 +16.7 61 +38  1011.7  721  263    +25.2  0.0     
18 13.08.13 тихо ()   20000 м    3/0 средняя 
[Ac trans]
+20.5 +16.3 77 +33  1013.3  0.8  722  267           
21 13.08.13 250 (З) 20000 м    ясно 
+20.3 +15.1 72 +30  1012.6  -0.7  721  267           
00 14.08.13 300 (СЗ) 20000 м    ясно 
+19.2 +15.7 80 +31  1012.9  721  268           
03 14.08.13 340 (С) 20000 м    3/0 средняя 
[Ac trans]
+18.9 +15.8 82 +31  1013.6  0.6  722  268  +16.7        сухая 
06 14.08.13 340 (С) 20000 м    ясно 
+24.8 +16.6 60 +38  1012.8  0.3  722  263           
09 14.08.13 310 (СЗ) 20000 м    5/5 600 м 
[Cu hum]
+28 +14.5 44 +37  1012.1  -0.2  722  261           
12 14.08.13 010 (С) 20000 м    6/6 960 м 
[Cu hum]
+30.6 +12.6 33 +36  1010.8  -0.8  721  259           
15 14.08.13 350 (С) 20000 м    4/3 1000 м средняя 
[Cu hum|Ac trans]
+28.8 +12.8 37 +35  1011.3  0.2  721  260    +31       
18 14.08.13 030 (СВ) 3{10}  20000 м    6/3 1000 м кучево-дожд., средняя 
[Cb calv|Ac trans]
+23 +15.7 63 +34  1013.2  0.9  722  265           
21 14.08.13 тихо ()   20000 м    4/0 средняя 
[Ac trans]
+21.6 +14.7 65 +31  1012.9  -0.5  721  266           
00 15.08.13 160 (Ю) 20000 м    ясно 
+19.8 +14.1 70 +29  1012.9  -0.3  721  268           
03 15.08.13 120 (ЮВ) 20000 м    1/0 средняя 
[Ac trans]
+20.9 +15.3 70 +31  1013.8  722  267  +18.1        сухая 
06 15.08.13 120 (ЮВ) 20000 м    ясно 
+26.3 +16 53 +38  1013.1  0.3  722  262           
09 15.08.13 060 (СВ) 20000 м    1/1 600 м 
[Cu hum]
+30.3 +12.3 33 +36  1011.8  -0.7  722  259           
12 15.08.13 050 (СВ) 20000 м    1/1 1000 м 
[Cu hum]
+31.7 +9.3 25 +33  1010.6  -0.9  721  259           
15 15.08.13 100 (В) 20000 м    ясно 
+30.4 +9.7 28 +32  1010.5  -0.4  721  260    +31.8       
18 15.08.13 100 (В) 20000 м    ясно 
+23.1 +12.3 51 +28  1012.7  721  266           
21 15.08.13 090 (В) 20000 м    ясно 
+21.6 +13.6 60 +29  1013  721  267           
00 16.08.13 080 (В) 20000 м    ясно 
+18 +14 77 +27  1013.4  -0.2  721  270           
03 16.08.13 110 (В) 20000 м    ясно 
+17.8 +15.5 86 +29  1013.6  0.2  721  269  +17.1        сухая 
06 16.08.13 090 (В) 20000 м    ясно 
+23.5 +16.9 66 +37  1012.6  0.1  721  264           
09 16.08.13 070 (В) 20000 м    3/3 600 м 
[Cu hum]
+28.9 +14.9 43 +38  1011  -0.7  721  260           
12 16.08.13 100 (В) 20000 м    3/3 600 м 
[Cu hum]
+31.2 +13.1 33 +38  1009.3  -1.4  720  258           
15 16.08.13 100 (В) 5{10}  20000 м    4/4 600 м 
[Cu hum]
+29.5 +14 39 +38  1009.2  -1.4  720  259    +31.6       
18 16.08.13 100 (В) 20000 м    1/0 средняя 
[Ac trans]
+24.3 +15.9 59 +36  1011.1  720  263           
21 16.08.13 090 (В) 20000 м    3/0 средняя 
[Ac trans]
+21 -4.2 18 +21  1011.7  720  270           
00 17.08.13 070 (В) 20000 м    3/0 средняя 
[Ac trans]
+18.2 +11.7 66 +23  1012.3  720  270           
03 17.08.13 100 (В) 20000 м    4/0 средняя 
[Ac trans]
+16.8 +11.8 72 +22  1012.4  0.1  720  271  +16.1        сухая 
06 17.08.13 110 (В) 20000 м    3/0 средняя 
[Ac trans]
+24.5 +11.7 45 +29  1011.2  0.1  720  264           
09 17.08.13 080 (В) 6{11}  20000 м    ясно 
+29.5 +6.1 23 +30  1009.9  -0.5  720  261           
12 17.08.13 080 (В) 6{11}  20000 м    ясно 
+30.6 +1.7 16 +31  1009  -0.7  720  260           
15 17.08.13 070 (В) 20000 м    8/0 средняя 
[Ac trans]
+27.8 +4.5 23 +28  1009  -0.4  719  262    +30.7       
18 17.08.13 090 (В) 20000 м    8/0 верхняя 
[Ci fib]
+24.4 +7.9 35 +24  1010.8  1.2  720  265           
21 17.08.13 090 (В) 20000 м    8/0 средняя, верхняя 
[Ac trans|Ci fib]
+22.9 +8.8 41 +23  1010.4  -0.6  720  266           
00 18.08.13 290 (З) 20000 м    4/0 верхняя 
[Ci fib]
+21.3 +12.2 56 +26  1010.1  -0.5  719  266           
03 18.08.13 340 (С) 20000 м    9/0 средняя, верхняя 
[Ac trans|Ci fib]
+21.4 +11.4 53 +25  1010.6  0.5  720  267  +19.8        сухая 
06 18.08.13 110 (В) 20000 м    9/0 средняя 
[Ac trans]
+23.9 +10.3 42 +26  1010.2  720  265           
09 18.08.13 060 (СВ) 20000 м    10/0 средняя 
[Ac und]
+26.3 +7.4 30 +26  1010.5  0.6  720  263           
12 18.08.13 090 (В) 6-10{11}  20000 м    10/3 1000 м кучево-дожд., средняя 
[Cb calv|Ac und]
+25.9 +11.8 41 +30  1010.5  720  263           
15 18.08.13 090 (В) 3{10}  20000 м    10/0 средняя, верхняя 
[Ac trans|Ci fib]
+24.2 +9 38 +25  1011.6  0.7  721  265    +26.9       
18 18.08.13 150 (ЮВ) 20000 м    4/0 верхняя 
[Ci fib]
+20 +9 49 +21  1013.2  0.8  721  269           
21 18.08.13 290 (З) 20000 м    3/0 верхняя 
[Ci fib]
+16 +10.6 70 +20  1013.7  -0.2  721  272           
00 19.08.13 350 (С) н/о    н/о 
+17.3 +9.8 61 +21  1013.5  721  271           
03 19.08.13 340 (С) 20000 м    ясно 
+17.8 +9.9 60 +21  1014  0.6  722  271  +15.6        сухая 
06 19.08.13 330 (СЗ) 20000 м    ясно 
+23.8 +8.9 39 +24  1013  722  266           
09 19.08.13 300 (СЗ) 20000 м    6/6 800 м 
[Cu med, cong]
+26.5 +8.3 32 +27  1012.1  -0.4  721  263           
12 19.08.13 020 (С) 20000 м    8/8 900 м 
[Cu med, cong]
+27.1 +7.2 28 +27  1011.6  -0.4  721  263           
15 19.08.13 020 (С) 20000 м    3/3 600 м кучево-дожд. 
[Cb calv]
+26.4 +8.2 32 +26  1011.6  -0.1  721  263    +28.5       
18 19.08.13 050 (СВ) 20000 м    ясно 
+21.3 +10.7 51 +24  1014  1.5  722  268           
21 19.08.13 120 (ЮВ) 20000 м    3/0 средняя 
[Ac trans]
+18.6 +11.3 62 +24  1014.3  -0.2  722  270           
00 20.08.13 210 (ЮЗ) 20000 м    ясно 
+15.2 +10.8 75 +19  1014.9  722  273           
03 20.08.13 220 (ЮЗ) 20000 м    3/3 1000 м 
[Sc]
+18.6 +10.8 60 +23  1014.7  0.4  722  270  +14.9        сухая 
06 20.08.13 020 (С) 20000 м    1/0 средняя 
[Ac trans]
+24.5 +9.7 39 +26  1013.8  0.4  722  265           
09 20.08.13 010 (С) 20000 м    6/6 600 м 
[Cu hum]
+26.1 +7.4 30 +26  1013  -0.5  722  264           
12 20.08.13 320 (СЗ) 3{11}  20000 м    8/8 600 м кучево-дожд. 
[Cb calv]
+28.2 +6.8 26 +28  1012.3  -0.3  722  262           
15 20.08.13 020 (С) 20000 м    8/4 1000 м кучево-дожд., средняя 
[Cb calv|Ac trans]
+26 +6.9 30 +26  1012.7  722  264    +28.5       
18 20.08.13 020 (С) 20000 м    3/0 средняя 
[Ac trans]
+21.3 +9.3 46 +22  1015  1.4  723  268           
21 20.08.13 030 (СВ) 20000 м    4/0 средняя 
[Ac trans]
+19.8 +7.9 46 +21  1015.5  0.2  723  270           
00 21.08.13 010 (С) 20000 м    4/0 средняя 
[Ac trans]
+17.6 +9.2 58 +19  1015.4  -0.4  723  272           
03 21.08.13 030 (СВ) 20000 м    1/0 средняя 
[Ac trans]
+17.6 +10.8 64 +21  1015.8  0.4  723  272  +17.2        сухая 
06 21.08.13 050 (СВ) 20000 м    ясно 
+22.5 +11.8 51 +27  1015.7  0.7  723  267           
09 21.08.13 020 (С) 20000 м    6/6 600 м 
[Cu hum]
+25.4 +10 38 +27  1014.7  -0.5  723  265           
12 21.08.13 040 (СВ) 5{11}  20000 м    6/6 600 м 
[Cu med, cong]
+25.8 +8.5 33 +26  1014.4  -0.5  723  265           
15 21.08.13 050 (СВ) 20000 м    3/1 600 м средняя 
[Cu hum|Ac trans]
+24.4 +9.4 39 +25  1014.8  0.1  723  266    +26.5       
18 21.08.13 040 (СВ) 20000 м    ясно 
+21.1 +9.6 48 +22  1016.2  0.9  724  269           
21 21.08.13 090 (В) 20000 м    ясно 
+19.2 +10 55 +23  1016  -0.5  723  270           
00 22.08.13 010 (С) 20000 м    ясно 
+17.5 +10 61 +21  1016.1  -0.3  723  272           
03 22.08.13 060 (СВ) 20000 м    ясно 
+18.3 +9.6 57 +21  1015.9  723  271  +16.3        сухая 
06 22.08.13 100 (В) 20000 м    ясно 
+24.9 +9.1 37 +26  1015.1  0.3  723  265           
09 22.08.13 090 (В) 5{10}  20000 м    6/6 700 м 
[Cu hum]
+27.4 +6.7 27 +27  1014  -0.6  723  264           
12 22.08.13 100 (В) 5{11}  20000 м    4/4 600 м 
[Cu hum]
+29.4 +5 21 +29  1012.9  -0.6  722  262           
15 22.08.13 100 (В) 5{11}  20000 м    3/3 1000 м 
[Cu hum]
+27.4 +5.5 25 +27  1012.9  -0.3  722  263    +29.6       
18 22.08.13 080 (В) 20000 м    ясно 
+20.6 +7 41 +21  1014.6  0.5  722  269           
21 22.08.13 080 (В) 20000 м    ясно 
+18.2 +7.2 49 +19  1014.4  -0.6  722  271           
00 23.08.13 080 (В) 20000 м    ясно 
+15.7 +7.6 59 +16  1014.3  -0.5  722  274           
03 23.08.13 070 (В) 20000 м    ясно 
+15.9 +7.8 59 +16  1014.5  0.2  722  273  +15.2        сухая 
06 23.08.13 110 (В) 11-15{15}  20000 м    ясно 
+25.5 +7.6 32 +26  1012.9  0.1  722  265           
09 23.08.13 100 (В) 10-14{16}  20000 м    ясно 
+28.5 +5.5 23 +29  1011.1  -1.3  721  262           
12 23.08.13 100 (В) 8-11{15}  20000 м    ясно 
+30.1 +4.5 20 +30  1009.2  -1.5  720  260           
15 23.08.13 120 (ЮВ) 7{13}  20000 м    ясно 
+28.1 +4.4 22 +28  1009  -0.5  719  262    +30.2       
18 23.08.13 100 (В) 20000 м    ясно 
+23.1 +7.7 37 +23  1010.8  0.9  720  266           
21 23.08.13 110 (В) 20000 м    ясно 
+20.3 +9.3 49 +21  1011  -0.3  720  268           
00 24.08.13 090 (В) 20000 м    ясно 
+17 +10.7 66 +20  1010.9  -0.6  719  271           
03 24.08.13 090 (В) 20000 м    6/0 средняя 
[Ac trans]
+15.7 +11.5 76 +20  1010.8  -0.3  719  272  +15.1        сухая 
06 24.08.13 340 (С) 20000 м    10/6 300 м кучево-дожд., средняя 
[Cb calv|Ac und]
+18.9 +14.3 75 +29  1012.2  1.9  720  269           
09 24.08.13 090 (В) 20000 м    10/5 600 м кучево-дожд., средняя 
[Cb calv|Ac und]
+19.3 +17 87 +34  1010.7  -1.3  719  267           
12 24.08.13 170 (Ю) 20000 м  {ливн. осадки}  10/5 600 м кучево-дожд., средняя 
[Cb calv|Ac und]
+21.6 +16.1 71 +33  1010.5  0.3  720  265           
15 24.08.13 190 (Ю) 20000 м    8/0 средняя 
[Ac trans]
+20.9 +15.2 70 +31  1010.4  -0.3  719  266    +22.4  0.8     
18 24.08.13 130 (ЮВ) 20000 м    4/0 средняя 
[Ac trans]
+17.7 +13.9 78 +27  1011.2  0.2  720  269           
21 24.08.13 тихо ()   20000 м    4/0 средняя 
[Ac trans]
+16.7 +13 79 +23  1010.7  -0.7  719  270           
00 25.08.13 тихо ()   20000 м    6/0 средняя 
[Ac trans]
+15.6 +12.9 84 +22  1010.9  719  271           
03 25.08.13 060 (СВ) 20000 м    9/0 средняя 
[Ac trans]
+17.3 +12.7 74 +25  1011.1  0.5  719  270  +13.6        сухая 
06 25.08.13 220 (ЮЗ) 20000 м    8/0 верхняя 
[Ci fib]
+22.5 +14.6 61 +32  1010.4  0.2  720  265           
09 25.08.13 280 (З) 20000 м    4/3 600 м верхняя 
[Cu hum|Ci fib]
+27.6 +11 36 +31  1009.2  -0.3  719  261           
12 25.08.13 270 (З) 20000 м    4/3 600 м верхняя 
[Cu hum|Ci fib]
+29.2 +8 26 +29  1008.4  -0.6  719  260           
15 25.08.13 290 (З) 20000 м    8/3 600 м верхняя 
[Cu hum|Ci fib]
+26.5 +7.9 31 +27  1009.8  0.9  720  263    +29.3       
18 25.08.13 240 (ЮЗ) 20000 м    4/1 600 м кучево-дожд., верхняя 
[Cb calv|Ci fib]
+21.4 +12.9 58 +28  1011.9  1.3  721  267           
21 25.08.13 240 (ЮЗ) 20000 м    1/0 верхняя 
[Ci fib]
+19.9 +14.5 71 +29  1012.2  -0.1  721  268           
00 26.08.13 250 (З) 20000 м    ясно 
+18.6 +14.4 77 +28  1012.2  -0.2  720  269           
03 26.08.13 250 (З) 20000 м    3/0 верхняя 
[Ci fib]
+16.4 +14.2 87 +24  1013.1  0.4  721  271  +15.8        сухая 
06 26.08.13 250 (З) 20000 м    ясно 
+24.4 +14 52 +32  1012.2  0.5  721  264           
09 26.08.13 270 (З) 20000 м    4/4 600 м 
[Cu med, cong]
+28.7 +11 33 +32  1011.3  -0.2  721  261           
12 26.08.13 290 (З) 20000 м    4/4 600 м 
[Cu hum]
+29.7 +7.4 25 +30  1010.6  -0.6  721  261           
15 26.08.13 320 (СЗ) 20000 м    1/1 1000 м 
[Cu hum]
+27.4 +7.9 29 +27  1010.8  -0.2  720  262    +30       
18 26.08.13 320 (СЗ) 20000 м    3/0 средняя 
[Ac trans]
+23 +6.2 34 +23  1012.5  0.9  721  267           
21 26.08.13 330 (СЗ) 20000 м    5/0 средняя 
[Ac trans]
+20.7 +5.5 37 +21  1012.8  0.1  721  269           
00 27.08.13 360 (С) 20000 м    10/4 1000 м средняя 
[Sc|Ac und]
+20 +4.4 36 +20  1013.1  0.1  721  270           
03 27.08.13 350 (С) 20000 м    3/1 1000 м верхняя 
[Sc|Ci fib]
+18.3 +4.4 40 +19  1014  0.6  722  272  +17.8        сухая 
06 27.08.13 040 (СВ) 20000 м    1/0 средняя 
[Ac trans]
+23.8 +4.4 28 +24  1013.7  0.6  722  267           
09 27.08.13 030 (СВ) 20000 м    ясно 
+27.5 +5.1 24 +28  1012.6  -0.4  722  263           
12 27.08.13 330 (СЗ) 20000 м    3/0 средняя 
[Ac trans]
+28.5 +6.8 25 +29  1012.1  -0.4  722  262           
15 27.08.13 020 (С) 20000 м    3/0 средняя 
[Ac trans]
+26.6 +6 27 +27  1012.5  0.1  722  264    +28.8       
18 27.08.13 030 (СВ) 20000 м    3/0 средняя 
[Ac trans]
+22.2 +5 33 +22  1014.8  1.4  723  268           
21 27.08.13 050 (СВ) 20000 м    4/0 средняя 
[Ac trans]
+19.6 +5.8 40 +20  1015.9  0.6  723  271           
00 28.08.13 070 (В) 20000 м    4/0 средняя 
[Ac trans]
+19.2 +6.8 44 +20  1016.4  0.1  723  271           
03 28.08.13 080 (В) 20000 м    3/0 средняя 
[Ac trans]
+15.2 +8.6 65 +15  1017.7  1.1  724  275  +14.5        сухая 
06 28.08.13 110 (В) 20000 м    1/0 верхняя 
[Ci fib]
+22 +10.3 47 +24  1017  0.5  724  268           
09 28.08.13 100 (В) 6-10{11}  20000 м    ясно 
+27.3 +9 32 +28  1015.8  -0.2  724  264           
12 28.08.13 090 (В) 7-12{13}  20000 м    3/1 600 м верхняя 
[Cu hum|Ci fib]
+28.3 +8.9 30 +29  1014.8  -0.8  723  263           
15 28.08.13 090 (В) 8-12  20000 м    1/0 верхняя 
[Ci fib]
+26 +7.5 31 +26  1015.2  -0.8  723  265    +28.7       
18 28.08.13 090 (В) 6{12}  20000 м    3/0 верхняя 
[Ci fib]
+21.2 +6.8 39 +21  1017  724  270           
21 28.08.13 090 (В) 20000 м    3/0 верхняя 
[Ci fib]
+18.9 +9.4 54 +20  1016.8  724  271           
00 29.08.13 100 (В) 20000 м    ясно 
+16.6 +11.4 71 +20  1017  -0.2  724  273           
03 29.08.13 090 (В) 6{10}  20000 м    3/0 средняя 
[Ac trans]
+14.8 +9.2 69 +15  1017.3  724  275  +14.7        сухая 
06 29.08.13 110 (В) 8-12{12}  20000 м    3/3 300 м 
[Sc]
+20.2 +12 59 +25  1015.8  -0.4  723  269           
09 29.08.13 110 (В) 9-13{15}  20000 м    ясно 
+24.9 +11.1 42 +28  1014  -1  722  265           
12 29.08.13 110 (В) 9-13{16}  20000 м    ясно 
+27 +10.8 36 +30  1012.1  -1.5  721  263           
15 29.08.13 120 (ЮВ) 9-12{14}  20000 м    ясно 
+23.4 +12.6 51 +29  1012.2  -0.4  721  265    +27.1       
18 29.08.13 120 (ЮВ) 6{12}  20000 м    1/0 средняя 
[Ac trans]
+19.1 +13.4 70 +26  1013  721  269           
21 29.08.13 120 (ЮВ) 6{12}  20000 м    3/3 600 м 
[Sc]
+18.3 +14 76 +26  1012.5  -0.6  721  269           
00 30.08.13 110 (В) 5{10}  20000 м    ясно 
+16.4 +13.9 85 +24  1012.1  -0.7  720  271           
03 30.08.13 130 (ЮВ) 20000 м    ясно 
+15.3 +13.2 87 +22  1012.4  -0.1  720  272  +15        сухая 
06 30.08.13 120 (ЮВ) 20000 м    3/0 верхняя 
[Ci fib]
+21.3 +14.1 63 +29  1011.8  0.5  721  266           
09 30.08.13 010 (С) 20000 м    8/1 600 м верхняя 
[Cu hum|Ci fib]
+27.1 +14.1 45 +35  1010.4  -0.4  720  261           
12 30.08.13 050 (СВ) 4{10}  20000 м    8/0 верхняя 
[Ci fib]
+28.1 +13.2 40 +35  1009.4  -0.7  720  260           
15 30.08.13 020 (С) 62  20000 м    1/0 верхняя 
[Ci fib]
+13.1   1009.4  -0.3  719      +29       
18 30.08.13 160 (Ю) 20000 м    3/0 средняя 
[Ac trans]
+22 +13.3 58 +29  1010.2  0.1  719  266           
21 30.08.13 180 (Ю) 20000 м    3/0 средняя 
[Ac trans]
+20.1 +13.9 67 +28  1009.5  -1  719  267           
00 31.08.13 100 (В) 20000 м    3/0 средняя 
[Ac trans]
+17.9 +13.6 76 +25  1008.9  -0.9  718  269           
03 31.08.13 280 (З) 20000 м    6/0 средняя 
[Ac trans]
+19.3 +15.8 80 +31  1009.1  0.4  718  267  +16.9        сухая 
06 31.08.13 290 (З) 1{12}  20000 м  гроза без осадков{ливн. осадки}  10/8 600 м кучево-дожд., средняя 
[Cb calv|Ac und]
+19.6 +16 80 +33  1010.8  1.7  720  267           
09 31.08.13 290 (З) 20000 м  гроза без осадков{ливн. осадки}  10/6 600 м кучево-дожд., средняя 
[Cb calv|Ac und]
+19.2 +16.3 83 +32  1011.1  0.2  720  267           
12 31.08.13 200 (Ю) 20000 м  слаб. ливневой дождь{гроза}  10/6 1000 м кучево-дожд., средняя 
[Cb cap|Ac und]
+20.4 +17.3 82 +35  1011.3  0.4  720  266           
15 31.08.13 240 (ЮЗ) 20000 м  {ливн. осадки}  9/1 1000 м кучево-дожд., средняя, верхняя 
[Cb calv|Ac trans|Ci fib]
+20.9 +16.7 77 +34  1010.7  -0.5  720  266    +21.7     
18 31.08.13 220 (ЮЗ) 20000 м  {ливн. осадки}  6/0 средняя 
[Ac trans]
+17.8 +15.3 85 +29  1011.9  0.5  720  269           
21 31.08.13 320 (СЗ) 20000 м  слаб. ливневой дождь  10/6 1000 м кучево-дожд., средняя 
[Cb cap|Ac und]
+17.9 +16.1 89 +31  1011.6  -0.2  720  269           
00 01.09.13 220 (ЮЗ) 20000 м  слаб. ливневой дождь{гроза}  10/6 600 м кучево-дожд., средняя 
[Cb cap|Ac und]
+14.3 +13.3 94 +23  1012.4  720  273           
03 01.09.13 200 (Ю) 20000 м  в посл. час ливневой дождь{гроза}  10/6 600 м кучево-дожд., средняя 
[Cb calv|Ac und]
+13.6 +12.9 96 +21  1012.9  0.4  720  274  +13.4    12     
06 01.09.13 280 (З) 20000 м  {гроза, ливн. осадки}  10/3 1000 м кучево-дожд., средняя 
[Cb calv|Ac und]
+16.2 +13.5 84 +25  1012.9  0.5  721  271           
Время (UTC), дата Ветер
(°,м/с) 
Видим.   Явления Облачность Т
(°С)
Тd
(°С)
f(%) Тe
(°С)
Pmin
(гПа)
dP
(гПа)
Po
(мм)
O2
(г/м3)
Тmin Tmax R s Состояние
почвы